2023/07/01 00:00:00, 0.0,20.9
2023/07/01 00:10:00, 0.0,20.8
2023/07/01 00:20:00, 0.0,20.9
2023/07/01 00:30:00, 0.0,20.8
2023/07/01 00:40:00, 0.0,20.8
2023/07/01 00:50:00, 0.0,20.8
2023/07/01 01:00:00, 0.0,21.0
2023/07/01 01:10:00, 0.0,21.2
2023/07/01 01:20:00, 0.0,21.0
2023/07/01 01:30:00, 0.0,20.9
2023/07/01 01:40:00, 0.0,20.9
2023/07/01 01:50:00, 0.0,20.9
2023/07/01 02:00:00, 0.0,20.9
2023/07/01 02:10:00, 0.0,20.8
2023/07/01 02:20:00, 0.0,20.8
2023/07/01 02:30:00, 0.0,20.8
2023/07/01 02:40:00, 0.0,20.9
2023/07/01 02:50:00, 0.0,20.8
2023/07/01 03:00:00, 0.0,20.8
2023/07/01 03:10:00, 0.0,20.7
2023/07/01 03:20:00, 0.0,20.8
2023/07/01 03:30:00, 0.0,20.6
2023/07/01 03:40:00, 0.0,20.5
2023/07/01 03:50:00, 0.0,20.4
2023/07/01 04:00:00, 8.7,20.4
2023/07/01 04:10:00,21.6,20.4
2023/07/01 04:20:00,23.2,20.4
2023/07/01 04:30:00,23.9,20.5
2023/07/01 04:40:00,24.3,20.5
2023/07/01 04:50:00,24.7,20.5
2023/07/01 05:00:00,25.4,20.4
2023/07/01 05:10:00,25.8,20.3
2023/07/01 05:20:00,25.6,20.5
2023/07/01 05:30:00,26.0,20.4
2023/07/01 05:40:00,26.5,20.5
2023/07/01 05:50:00,27.0,20.6
2023/07/01 06:00:00,27.5,20.3
2023/07/01 06:10:00,27.9,20.6
2023/07/01 06:20:00,28.4,20.5
2023/07/01 06:30:00,28.6,20.9
2023/07/01 06:40:00,29.1,21.0
2023/07/01 06:50:00,29.2,20.8
2023/07/01 07:00:00,29.2,20.8
2023/07/01 07:10:00,29.3,20.8
2023/07/01 07:20:00,29.0,21.1
2023/07/01 07:30:00,28.3,20.9
2023/07/01 07:40:00,28.5,21.1
2023/07/01 07:50:00,28.8,21.2
2023/07/01 08:00:00,28.9,21.3
2023/07/01 08:10:00,28.6,21.4
2023/07/01 08:20:00,28.6,21.4
2023/07/01 08:30:00,29.2,21.7
2023/07/01 08:40:00,29.6,21.8
2023/07/01 08:50:00,29.2,21.7
2023/07/01 09:00:00,28.1,22.0
2023/07/01 09:10:00,28.6,22.0
2023/07/01 09:20:00,28.4,22.3
2023/07/01 09:30:00,27.9,22.0
2023/07/01 09:40:00,27.8,22.2
2023/07/01 09:50:00,27.8,22.2
2023/07/01 10:00:00,27.4,22.2
2023/07/01 10:10:00,27.9,22.2
2023/07/01 10:20:00,28.1,22.4
2023/07/01 10:30:00,28.0,22.5
2023/07/01 10:40:00,28.2,23.0
2023/07/01 10:50:00,29.0,23.1
2023/07/01 11:00:00,28.8,23.3
2023/07/01 11:10:00,28.5,23.2
2023/07/01 11:20:00,27.8,23.2
2023/07/01 11:30:00,27.4,23.8
2023/07/01 11:40:00,28.0,23.9
2023/07/01 11:50:00,28.9,24.3
2023/07/01 12:00:00,29.3,23.9
2023/07/01 12:10:00,29.4,23.9
2023/07/01 12:20:00,29.7,24.0
2023/07/01 12:30:00,29.9,23.7
2023/07/01 12:40:00,28.9,23.3
2023/07/01 12:50:00,28.0,24.0
2023/07/01 13:00:00,29.0,23.9
2023/07/01 13:10:00,29.0,24.2
2023/07/01 13:20:00,28.7,23.9
2023/07/01 13:30:00,28.5,24.0
2023/07/01 13:40:00,25.1,24.1
2023/07/01 13:50:00,25.8,23.7
2023/07/01 14:00:00,25.6,23.7
2023/07/01 14:10:00,11.6,23.0
2023/07/01 14:20:00, 7.5,22.9
2023/07/01 14:30:00, 0.0,22.9
2023/07/01 14:40:00, 0.0,23.0
2023/07/01 14:50:00, 0.0,23.0
2023/07/01 15:00:00, 0.0,22.6
2023/07/01 15:10:00, 0.3,22.5
2023/07/01 15:20:00,13.7,22.5
2023/07/01 15:30:00,18.3,22.5
2023/07/01 15:40:00,19.9,22.7
2023/07/01 15:50:00,21.3,22.4
2023/07/01 16:00:00,22.4,22.2
2023/07/01 16:10:00,22.9,22.2
2023/07/01 16:20:00,22.9,22.2
2023/07/01 16:30:00,22.9,22.2
2023/07/01 16:40:00,22.8,22.2
2023/07/01 16:50:00,23.2,22.1
2023/07/01 17:00:00,23.5,22.2
2023/07/01 17:10:00,23.1,22.2
2023/07/01 17:20:00,23.2,22.4
2023/07/01 17:30:00,22.7,22.3
2023/07/01 17:40:00,22.2,22.3
2023/07/01 17:50:00,23.6,22.4
2023/07/01 18:00:00,24.0,22.5
2023/07/01 18:10:00,16.2,22.2
2023/07/01 18:20:00, 0.0,22.1
2023/07/01 18:30:00, 0.0,22.0
2023/07/01 18:40:00, 0.0,22.0
2023/07/01 18:50:00, 0.0,21.9
2023/07/01 19:00:00, 0.0,21.6
2023/07/01 19:10:00, 0.0,21.6
2023/07/01 19:20:00, 0.0,21.3
2023/07/01 19:30:00, 0.0,21.2
2023/07/01 19:40:00, 0.0,21.4
2023/07/01 19:50:00, 0.0,21.4
2023/07/01 20:00:00, 0.0,21.3
2023/07/01 20:10:00, 0.0,21.2
2023/07/01 20:20:00, 0.0,21.2
2023/07/01 20:30:00, 0.0,21.0
2023/07/01 20:40:00, 0.0,20.8
2023/07/01 20:50:00, 0.0,20.8
2023/07/01 21:00:00, 0.0,20.6
2023/07/01 21:10:00, 0.0,20.6
2023/07/01 21:20:00, 0.0,20.6
2023/07/01 21:30:00, 0.0,20.5
2023/07/01 21:40:00, 0.0,20.3
2023/07/01 21:50:00, 0.0,20.5
2023/07/01 22:00:00, 0.0,20.5
2023/07/01 22:10:00, 0.0,20.6
2023/07/01 22:20:00, 0.0,20.4
2023/07/01 22:30:00, 0.0,20.5
2023/07/01 22:40:00, 0.0,20.5
2023/07/01 22:50:00, 0.0,20.4
2023/07/01 23:00:00, 0.0,20.3
2023/07/01 23:10:00, 0.0,20.2
2023/07/01 23:20:00, 0.0,20.5
2023/07/01 23:30:00, 0.0,20.3
2023/07/01 23:40:00, 0.0,20.4
2023/07/01 23:50:00, 0.0,20.4
